map of BJA home
BJA - Airport
Location
City:  Bejaia, Béjaïa, Algeria
Name:Soummam -Abane Ramdane Airport
ICAO:DAAE
IATA:BJA

Details
Type:Airport (Aerodrome, Airfield)
Use:Public/Civil, International (customs port of entry)
Latitude:36°42'43"N (36.711944)
Longitude:5°04'10"E (5.069444)
Elevation:20 ft (6 m)
Variation:1.71°E (WMM2015v2 magnetic declination)
0.13° annual change
Runways:1
Longest:7874 × 148 ft (2400 × 45 m)

Time
Time Zone:UTC+1
Local Time:

Weather
METAR:DAAE 041400Z 31008KT 9999 SCT020TCU SCT033 13/06 Q1024
TAF:DAAE 041100Z 0412/0512 32015G25KT 6000 -RA FEW015TCU BKN020 PROB30
TEMPO 0412/0424 34020G40KT 3000 -TSRA SCT015CB

Related Locations
Nearby:
Farthest:GIS: 12030 mi / 19361 km
Gisborne, GIS, NZ

Find:

   beyond  
but within

Other Information
Maps:
NOTAMs:
Links:
Sources:

  
  • flag of Algeria
  

Sectional Chart

Flight Planning
at skyvector.com

Satellite Image

Google Maps Satellite view

 

Copyright © 2004-2019 Karl L. Swartz. All rights reserved.
The Great Circle Mapper name and logo are trademarks of the Great Circle Mapper.
All other trademarks mentioned herein belong to their respective owners.
Please see credits for attibutions and further copyright information.

  Follow gcmap on Facebook Follow gcmap on Twitter GCmap on LinkedIn

hCard Microformat

Geo Microformat